Regional Weather Roundup
Issued by NWS

Home | Current Version | Previous Version | Graphics & Text | Print | Product List | Glossary On
Versions: 1 2 3 4 5 6 7 8 9 10 11 12 13 14 15 16 17 18 19 20 21 22 23 24 25 26 27 28 29 30 31 32 33 34 35 36 37 38 39 40 41 42 43 44 45 46 47 48 49 50
000
ASUS43 KMPX 230501
RWRMN
WEATHER ROUNDUP FOR MINNESOTA
NATIONAL WEATHER SERVICE TWIN CITIES/CHANHASSEN MN
1100 PM CST THU FEB 22 2018


NOTE: "FAIR" INDICATES FEW OR NO CLOUDS BELOW 12,000 FEET WITH NO
SIGNIFICANT WEATHER AND/OR OBSTRUCTIONS TO VISIBILITY. N/A MEANS
CURRENT SKY AND/OR WEATHER CONDITIONS ARE NOT AVAILABLE.

MNZ060>063-068>070-230600-
   Twin Cities Metro

CITY           SKY/WX    TMP DP  RH WIND       PRES   REMARKS
TWIN CITIES    HVY SNOW  26  26 100 SE7       30.23S VSB 1/4 WCI  18
ST PAUL        HVY SNOW  26  26 100 CALM      30.25R VSB 1/4
CRYSTAL        SNOW      25  23  92 E3        30.22S VSB 1/2
BLAINE         MIX PCPN  27  27 100 E3        30.22S
LAKEVILLE      SNOW      25  25 100 CALM      30.22R VSB 1/2
EDEN PRAIRIE   HVY SNOW  26  23  88 E5        30.21S VSB 1/4 WCI  20
SOUTH ST PAUL  SNOW      27  26  96 CALM      30.23S VSB 1/2
LAKE ELMO      SNOW      28  27  93 E3        30.23S VSB 1/2
$$
MNZ001>005-007-008-013>017-022>024-027-028-230600-
   Northwest Minnesota

CITY           SKY/WX    TMP DP  RH WIND       PRES   REMARKS
BEMIDJI        LGT SNOW  19  17  91 SE5       30.22F WCI  12
HALLOCK        FAIR       9   7  92 CALM      30.25F
ROSEAU         FAIR      12   7  79 S6        30.24F WCI   3
WARROAD        FAIR      10   7  85 CALM      30.24F
THIEF RVR FALL CLOUDY    17  11  77 CALM      30.23F
CROOKSTON      MOCLDY    18  12  79 CALM      30.25F
FOSSTON        LGT SNOW  19   9  63 CALM      30.23S
DETROIT LAKES  LGT SNOW  21  21 100 SE7       30.21F WCI  13
MOORHEAD       LGT SNOW  21  19  93 CALM      30.22F
PARK RAPIDS    LGT SNOW  19  16  88 SE5       30.21F VSB 3/4 WCI  12
MAHNOMEN       LGT SNOW  21  19  91 SE5       30.22F WCI  14
$$
MNZ006-009>011-018-025>026-230600-
   North Central Minnesota

CITY           SKY/WX    TMP DP  RH WIND       PRES   REMARKS
BAUDETTE       FAIR      14   3  61 SE3       30.23F
FLAG ISLAND    FAIR       9   3  78 CALM      30.23F
INTL FALLS     MOCLDY    20   7  57 CALM      30.25F
WASKISH        CLOUDY    21   7  53 CALM      30.25F
BIG FORK       LGT SNOW  21  18  86 CALM      30.25F
LONGVILLE      MIX PCPN  19  18  93 CALM      30.23F
GRAND RAPIDS   SNOW      20  18  92 E3        30.26F VSB 1/2
CRANE LAKE     CLOUDY    23   9  54 S3        30.29F
ORR            LGT SNOW  21  12  68 S5        30.24F WCI  15
COOK           LGT SNOW  21  16  79 SE3       30.28F
WALKER         LGT SNOW  19  17  90 CALM      30.22F
$$
MNZ012-019>021-037-230600-
   Northeast Minnesota

CITY           SKY/WX    TMP DP  RH WIND       PRES   REMARKS
DULUTH         LGT SNOW  22  18  85 E8        30.25F VSB 3/4 WCI  12
ELY            MOCLDY    21  10  63 CALM      30.27F
HIBBING        LGT SNOW  18  16  92 SE3       30.26F VSB 3/4
DULUTH HARBOR  LGT SNOW  25  21  86 NE14      30.31F VSB 1   WCI  13
TWO HARBORS    LGT SNOW  25  18  74 NE7       30.28F WCI  17
SILVER BAY     LGT SNOW  19  18  93 CALM      30.29
GRAND MARAIS     N/A     22   9  57 CALM      30.35F
G MARAIS ARPRT CLOUDY    16   7  67 CALM      30.27F
$$
MNZ029>031-032-039>041-046>048-054>057-064-230600-
   West Central Minnesota

CITY           SKY/WX    TMP DP  RH WIND       PRES   REMARKS
FERGUS FALLS   LGT SNOW  21  18  86 E7        30.20F WCI  13
WHEATON        LGT SNOW  21  19  93 E9        30.20F WCI  11
MORRIS         LGT SNOW  21  19  93 E12       30.16F WCI   9
ALEXANDRIA     LGT SNOW  20  18  92 E8        30.17F FOG     WCI  10
ELBOW LAKE     LGT SNOW  20  19  94 NE9       30.19F WCI  10
WADENA         LGT SNOW  18  16  93 E5        30.20F VSB 1   WCI  11
GLENWOOD       LGT SNOW  21  19  93 E8        30.17F WCI  12
APPLETON       LGT SNOW  25  21  86 E9        30.17F WCI  15
BENSON         MIX PCPN  23  21  93 SE7       30.18F WCI  15
ORTONVILLE     LGT SNOW  21  19  93 E5        30.16F WCI  15
MADISON        LGT SNOW  25  23  93 E7        30.16F WCI  17
WILLMAR        CLOUDY    23  21  93 E13G18    30.18F WCI  11
$$
MNZ033>034-036-042>043-049>051-058-059-230600-
   Central Minnesota

CITY           SKY/WX    TMP DP  RH WIND       PRES   REMARKS
ST CLOUD       LGT SNOW  23  22  96 E7        30.21F VSB 3/4 WCI  15
SAUK CENTRE    LGT SNOW  21  19  93 E9        30.18F WCI  11
PAYNESVILLE    LGT SNOW  22  22  98 E7        30.18F WCI  14
AITKIN         SNOW      19  18  93 CALM      30.23F VSB 1/2
PINE RIVER     LGT SNOW  19  16  86 E5        30.25F VSB 3/4 WCI  13
BRAINERD       LGT SNOW  22  18  85 NE5       30.22F VSB 1   WCI  16
STAPLES        LGT SNOW  19  18  93 CALM      30.21F
LONG PRAIRIE   SNOW      21  19  93 NE7       30.19F VSB 1/2 WCI  13
LITTLE FALLS   LGT SNOW  23  19  86 E5        30.21F WCI  17
LITCHFIELD     LGT SNOW  25  25 100 E8        30.19F WCI  16
BUFFALO        LGT SNOW  24  22  92 NE5       30.22F VSB 3/4 WCI  19
MAPLE LAKE     LGT SNOW  25  24  96 E6        30.22F VSB 1   WCI  18
HUTCHINSON     SNOW      25  24  96 NE8       30.19F VSB 1/2 WCI  16
$$
MNZ037-044-045-052-053-230600-
   East Central Minnesota

CITY           SKY/WX    TMP DP  RH WIND       PRES   REMARKS
PRINCETON      LGT SNOW  25  21  86 E5        30.22F VSB 1   WCI  19
CAMBRIDGE      LGT SNOW  27  21  80 CALM      30.23F
RUSH CITY      LGT SNOW  24  22  93 NE6       30.23F WCI  17
MOOSE LAKE     LGT SNOW  21  19  93 NE6       30.24F WCI  14
HINCKLEY       LGT SNOW  27  25  93 NE3       30.24F VSB 1
CLOQUET        LGT SNOW  21  18  86 E5        30.25F VSB 1   WCI  15
MCGREGOR       CLOUDY    21  19  93 E7        30.24F VSB 1/2 WCI  13
$$
MNZ071>073-080-081-089-090-097-098-230600-
   Southwest Minnesota

CITY           SKY/WX    TMP DP  RH WIND       PRES   REMARKS
MONTEVIDEO     LGT SNOW  23  23 100 SE14      30.16F WCI  11
GRANITE FALLS  LGT SNOW  26  24  93 E9        30.18F VSB 1   WCI  16
CANBY          LGT SNOW  24  23  96 E3        30.16F
MARSHALL       FLURRIES  24  22  91 SE7       30.15S WCI  16
REDWOOD FALLS  LGT SNOW  24  23  96 E8        30.16F FOG     WCI  15
OLIVIA         LGT SNOW  27  23  86 E10       30.16F WCI  17
PIPESTONE      LGT SNOW  23  21  93 S5        30.11F WCI  17
WORTHINGTON    LGT SNOW  25  24  96 S6        30.12F FOG     WCI  18
JACKSON        LGT SNOW  28  27  93 S3        30.12F
TRACY          LGT SNOW  25  24  98 SE3       30.12F
SLAYTON        LGT SNOW  24  24  97 SE5       30.12F WCI  19
$$
MNZ065>067-074>077-082>085-091>093-230600-
   South Central Minnesota

CITY           SKY/WX    TMP DP  RH WIND       PRES   REMARKS
MANKATO        LGT SNOW  26  25  96 E6        30.18F FOG     WCI  19
NEW ULM        LGT SNOW  25  25 100 E6        30.16F VSB 1   WCI  18
ST JAMES       LGT SNOW  27  27 100 E8        30.15F WCI  18
FAIRMONT       MIX PCPN  30  29  96 SE7       30.15F FOG     WCI  23
GLENCOE        LGT SNOW  26  26 100 NE5       30.19F WCI  20
FARIBAULT      MIX PCPN  27  27 100 CALM      30.21R VSB 3/4
OWATONNA       LGT SNOW  28  27  93 SE3       30.19S
WASECA         LGT SNOW  28  27  93 SE3       30.20F VSB 3/4
$$
MNZ078>079-086>088-094>096-230600-
   Southeast Minnesota

CITY           SKY/WX    TMP DP  RH WIND       PRES   REMARKS
ROCHESTER      FRZ RAIN  28  28 100 SE21      30.12F FOG     WCI  15
RED WING       LGT SNOW  28  25  86 E3        30.21R
STANTON        LGT SNOW  29  27  91 CALM      30.20R VSB 3/4
DODGE CENTER   MIX PCPN  28  27  93 SE5       30.17R WCI  23
WINONA         CLOUDY    30  28  93 SE12      30.19F FOG     WCI  21
AUSTIN         MIX PCPN  30  28  93 SW7       30.17R WCI  23
PRESTON        CLOUDY    29  28  95 SE12G18   30.14F FOG     WCI  19
$$
ABBREVIATIONS USED IN REMARKS
   TC - TEMPERATURES IN CELSIUS
  WCI - WIND CHILL INDEX
   HX - HEAT INDEX
  VSB - VISIBILITY
$$



USA.gov is the U.S. government's official web portal to all federal, state and local government web resources and services.